Location: Gazon
(48.1318°N, 1.2708°W)
Time: 22:40:17
(UTC+00:00)

USA 234 - Pass Details

Date: 18 September 2020
Orbit: 1102 x 1106 km, 123.0° (Epoch: 16 October)

Event Time Altitude Azimuth Distance (km) Brightness Sun altitude
Rises 22:01:19 0° 57° (ENE) 3,926 6.1 -34.3°
Enters shadow 22:03:22 - 55° (NE) 3,144 5.6 -34.5°
Exits shadow 22:06:55 29° 43° (NE) 1,889 4.5 -34.8°
Maximum altitude 22:10:12 57° 338° (NNW) 1,279 3.7 -35.1°
Drops below altitude 10° 22:16:35 10° 262° (W) 2,963 5.7 -35.7°
Sets 22:19:06 0° 258° (WSW) 3,920 6.4 -35.9°
